• In Uzbekistan
  • List of Countries
  • For 7 days
  • Water Temperature
  • Satellite Maps
  • Weather Map
  • Weather Widgets
  • user-avatar
    Login

    Hourly Weather Biatris

    Today, 19 October, Friday

    Time Temperature Precipitation Wind Pressure Humidity
    00:00 +20°C° 0.2 mm 3 mps 652 mmHg 79%
    01:00 +19°C° 0.2 mm 3 mps 652 mmHg 81%
    02:00 +19°C° 0.2 mm 3 mps 652 mmHg 83%
    03:00 +19°C° 0.1 mm 3 mps 652 mmHg 83%
    04:00 +19°C° 0.1 mm 3 mps 652 mmHg 84%
    05:00 +18°C° 0.1 mm 3 mps 652 mmHg 84%
    06:00 +20°C° 0 mm 3 mps 653 mmHg 78%
    07:00 +21°C° 0 mm 3 mps 653 mmHg 71%
    08:00 +24°C° 0 mm 3 mps 654 mmHg 64%
    09:00 +26°C° 0 mm 3 mps 655 mmHg 56%
    10:00 +29°C° 0 mm 3 mps 655 mmHg 48%
    11:00 +31°C° 0 mm 2 mps 656 mmHg 40%
    12:00 +31°C° 0.4 mm 2 mps 655 mmHg 41%
    13:00 +30°C° 0.4 mm 2 mps 654 mmHg 42%
    14:00 +29°C° 0.4 mm 2 mps 654 mmHg 44%
    15:00 +29°C° 0.9 mm 2 mps 653 mmHg 47%
    16:00 +28°C° 0.9 mm 2 mps 653 mmHg 51%
    17:00 +27°C° 0.9 mm 2 mps 652 mmHg 54%
    18:00 +26°C° 0 mm 2 mps 653 mmHg 57%
    19:00 +25°C° 0 mm 2 mps 653 mmHg 61%
    20:00 +24°C° 0 mm 2 mps 653 mmHg 64%
    21:00 +23°C° 0 mm 2 mps 653 mmHg 66%
    22:00 +23°C° 0 mm 2 mps 653 mmHg 69%
    23:00 +21°C° 0 mm 2 mps 653 mmHg 72%

    Tomorrow, 20 October, Saturday

    Time Temperature Precipitation Wind Pressure Humidity
    00:00 +21°C° 0 mm 2 mps 653 mmHg 74%
    01:00 +20°C° 0 mm 2 mps 653 mmHg 77%
    02:00 +20°C° 0 mm 2 mps 653 mmHg 80%
    03:00 +19°C° 0 mm 2 mps 653 mmHg 82%
    04:00 +19°C° 0 mm 2 mps 653 mmHg 83%
    05:00 +18°C° 0 mm 2 mps 653 mmHg 85%
    06:00 +20°C° 0 mm 2 mps 654 mmHg 76%
    07:00 +23°C° 0 mm 2 mps 655 mmHg 67%
    08:00 +26°C° 0 mm 3 mps 656 mmHg 58%
    09:00 +28°C° 0 mm 3 mps 656 mmHg 47%
    10:00 +30°C° 0 mm 3 mps 657 mmHg 36%
    11:00 +33°C° 0 mm 3 mps 657 mmHg 26%
    12:00 +34°C° 0 mm 3 mps 656 mmHg 23%
    13:00 +35°C° 0 mm 3 mps 656 mmHg 19%
    14:00 +36°C° 0 mm 3 mps 655 mmHg 16%
    15:00 +35°C° 0 mm 4 mps 655 mmHg 17%
    16:00 +34°C° 0 mm 4 mps 654 mmHg 17%
    17:00 +34°C° 0 mm 4 mps 654 mmHg 18%
    18:00 +32°C° 0 mm 4 mps 654 mmHg 23%
    19:00 +28°C° 0 mm 4 mps 655 mmHg 28%
    20:00 +26°C° 0 mm 4 mps 655 mmHg 33%
    21:00 +25°C° 0 mm 4 mps 655 mmHg 39%
    22:00 +23°C° 0 mm 5 mps 656 mmHg 45%
    23:00 +22°C° 0 mm 5 mps 656 mmHg 50%

    Day after tomorrow, 21 October, Sunday

    Time Temperature Precipitation Wind Pressure Humidity
    00:00 +21°C° 0 mm 5 mps 656 mmHg 53%
    01:00 +20°C° 0 mm 5 mps 656 mmHg 56%
    02:00 +19°C° 0 mm 5 mps 655 mmHg 59%
    03:00 +19°C° 0 mm 6 mps 655 mmHg 62%
    04:00 +17°C° 0 mm 6 mps 655 mmHg 65%
    05:00 +16°C° 0 mm 6 mps 655 mmHg 68%
    06:00 +17°C° 0 mm 6 mps 656 mmHg 64%
    07:00 +18°C° 0 mm 7 mps 657 mmHg 60%
    08:00 +20°C° 0 mm 7 mps 658 mmHg 56%
    09:00 +22°C° 0 mm 7 mps 658 mmHg 50%
    10:00 +24°C° 0 mm 6 mps 658 mmHg 44%
    11:00 +27°C° 0 mm 6 mps 659 mmHg 39%
    12:00 +27°C° 0 mm 6 mps 658 mmHg 37%
    13:00 +28°C° 0 mm 5 mps 657 mmHg 35%
    14:00 +28°C° 0 mm 5 mps 657 mmHg 34%
    15:00 +27°C° 0 mm 5 mps 657 mmHg 36%
    16:00 +26°C° 0 mm 5 mps 656 mmHg 38%
    17:00 +25°C° 0 mm 5 mps 656 mmHg 41%
    18:00 +23°C° 0 mm 6 mps 656 mmHg 45%
    19:00 +21°C° 0 mm 6 mps 657 mmHg 50%
    20:00 +19°C° 0 mm 6 mps 657 mmHg 55%
    21:00 +19°C° 0 mm 5 mps 657 mmHg 57%
    22:00 +17°C° 0 mm 5 mps 657 mmHg 58%
    23:00 +16°C° 0 mm 5 mps 657 mmHg 60%

    22 October, Monday

    Time Temperature Precipitation Wind Pressure Humidity
    00:00 +15°C° 0 mm 5 mps 657 mmHg 64%
    01:00 +15°C° 0 mm 4 mps 656 mmHg 67%
    02:00 +14°C° 0 mm 4 mps 655 mmHg 71%
    03:00 +14°C° 0 mm 4 mps 656 mmHg 72%
    04:00 +14°C° 0 mm 4 mps 656 mmHg 72%
    05:00 +14°C° 0 mm 4 mps 656 mmHg 73%
    06:00 +15°C° 0 mm 4 mps 657 mmHg 67%
    07:00 +17°C° 0 mm 4 mps 657 mmHg 62%
    08:00 +17°C° 0 mm 5 mps 658 mmHg 56%
    09:00 +20°C° 0 mm 4 mps 658 mmHg 49%
    10:00 +22°C° 0 mm 4 mps 658 mmHg 42%
    11:00 +25°C° 0 mm 4 mps 658 mmHg 35%
    12:00 +27°C° 0 mm 4 mps 657 mmHg 32%
    13:00 +28°C° 0 mm 3 mps 657 mmHg 29%
    14:00 +29°C° 0 mm 3 mps 656 mmHg 26%
    15:00 +28°C° 0 mm 3 mps 656 mmHg 27%
    16:00 +27°C° 0 mm 4 mps 656 mmHg 29%
    17:00 +27°C° 0 mm 4 mps 656 mmHg 30%
    18:00 +25°C° 0 mm 4 mps 656 mmHg 34%
    19:00 +23°C° 0 mm 4 mps 656 mmHg 38%
    20:00 +21°C° 0 mm 4 mps 657 mmHg 41%
    21:00 +20°C° 0 mm 4 mps 656 mmHg 46%
    22:00 +19°C° 0 mm 4 mps 656 mmHg 50%
    23:00 +17°C° 0 mm 3 mps 656 mmHg 54%

    23 October, Tuesday

    Time Temperature Precipitation Wind Pressure Humidity
    00:00 +17°C° 0 mm 3 mps 655 mmHg 58%
    01:00 +16°C° 0 mm 3 mps 655 mmHg 62%
    02:00 +14°C° 0 mm 3 mps 654 mmHg 66%
    03:00 +14°C° 0 mm 3 mps 655 mmHg 68%
    04:00 +14°C° 0 mm 3 mps 655 mmHg 71%
    05:00 +13°C° 0 mm 3 mps 655 mmHg 73%
    06:00 +16°C° 0 mm 3 mps 656 mmHg 67%
    07:00 +17°C° 0 mm 3 mps 656 mmHg 62%
    08:00 +19°C° 0 mm 3 mps 657 mmHg 56%
    09:00 +21°C° 0 mm 3 mps 657 mmHg 47%
    10:00 +25°C° 0 mm 4 mps 657 mmHg 39%
    11:00 +27°C° 0 mm 4 mps 657 mmHg 31%
    12:00 +28°C° 0 mm 4 mps 657 mmHg 28%
    13:00 +29°C° 0 mm 3 mps 656 mmHg 25%
    14:00 +30°C° 0 mm 3 mps 655 mmHg 23%
    15:00 +29°C° 0 mm 3 mps 655 mmHg 24%
    16:00 +28°C° 0 mm 3 mps 655 mmHg 25%
    17:00 +28°C° 0 mm 3 mps 655 mmHg 27%
    18:00 +26°C° 0 mm 3 mps 655 mmHg 32%
    19:00 +24°C° 0 mm 3 mps 656 mmHg 37%
    20:00 +22°C° 0 mm 3 mps 656 mmHg 43%
    21:00 +21°C° 0 mm 3 mps 656 mmHg 47%
    22:00 +19°C° 0 mm 3 mps 656 mmHg 51%
    23:00 +18°C° 0 mm 3 mps 656 mmHg 55%

    24 October, Wednesday

    Time Temperature Precipitation Wind Pressure Humidity
    00:00 +18°C° 0 mm 3 mps 655 mmHg 59%
    01:00 +17°C° 0 mm 3 mps 655 mmHg 62%
    02:00 +16°C° 0 mm 2 mps 654 mmHg 66%
    03:00 +16°C° 0 mm 2 mps 654 mmHg 68%
    04:00 +15°C° 0 mm 2 mps 654 mmHg 71%
    05:00 +15°C° 0 mm 2 mps 654 mmHg 74%
    06:00 +17°C° 0 mm 2 mps 655 mmHg 65%
    07:00 +19°C° 0 mm 3 mps 656 mmHg 57%
    08:00 +22°C° 0 mm 3 mps 657 mmHg 48%
    09:00 +25°C° 0 mm 3 mps 657 mmHg 41%
    10:00 +27°C° 0 mm 3 mps 657 mmHg 34%
    11:00 +30°C° 0 mm 3 mps 657 mmHg 27%
    12:00 +30°C° 0 mm 3 mps 656 mmHg 26%
    13:00 +30°C° 0 mm 3 mps 656 mmHg 26%
    14:00 +30°C° 0 mm 2 mps 655 mmHg 25%
    15:00 +27°C° 1.1 mm 3 mps 655 mmHg 37%
    16:00 +25°C° 1.1 mm 4 mps 654 mmHg 50%
    17:00 +21°C° 1.1 mm 6 mps 654 mmHg 62%
    18:00 +20°C° 2 mm 5 mps 654 mmHg 67%
    19:00 +19°C° 2 mm 5 mps 654 mmHg 71%
    20:00 +17°C° 2 mm 5 mps 655 mmHg 75%
    21:00 +17°C° 1.2 mm 4 mps 655 mmHg 76%
    22:00 +17°C° 1.2 mm 4 mps 655 mmHg 78%
    23:00 +17°C° 1.2 mm 3 mps 655 mmHg 79%
    Show more